Flag for U.S.A. Weather past 2 weeks in Sitka, Alaska, U.S.A.

Now
56 °F

Light rain. Fog.


Feels Like: 51 °F
Forecast: 54 / 57 °F
Wind: 23 mph from South

Location: Sitka Airport

Current Time: Sep 18, 2014 at 8:31:39 PM

Latest Report: Sep 18, 2014 at 7:53 PM


Visibility: 4 mi

Pressure: 29.21 "Hg

Humidity: 84%

Dew point: 51 °F

Location of SitkaLocation

Historic Weather in Sitka — Graph

°F

Sitka temperature yesterday

Maximum temperature yesterday: 56 °F (at 2:53 PM)
Minimum temperature yesterday: 48 °F (at 5:53 AM)
Average temperature yesterday: 53 °F

Past Weeks' High & Low Weather Summary

 TemperatureHumidityPressure
High63 °F (Sep 10, 12:53 PM)100% (Sep 3, 9:53 PM)30.34 "Hg (Sep 3, 9:53 PM)
Low46 °F (Sep 8, 5:53 AM)48% (Sep 10, 12:53 PM)29.11 "Hg (Sep 18, 3:53 PM)
Average55 °F91%30.02 "Hg
* Reported Sep 3 6:53 PM — Sep 18 6:53 PM, Sitka, Weather by CustomWeather, © 2014

Note: Actual official high and low records may vary slightly from our data, if they occured in-between our weather recording intervals... More about our weather records

Advertising

Sitka weather history for previous 24 hours

 ConditionsComfort  
Time TempWeatherWind HumidityBarometerVisibility
6:53 PM
Sep 18
57 °FLight rain. Fog.16 mph81%29.18 "Hg6 mi
5:53 PM59 °FCloudy.18 mph75%29.16 "Hg10 mi
4:53 PM58 °FCloudy.16 mph81%29.15 "Hg10 mi
3:53 PM60 °FLight rain. Fog.14 mph72%29.11 "Hg6 mi
2:53 PM59 °FFog.13 mph81%29.15 "Hg10 mi
1:53 PM57 °FLight rain. Fog.15 mph83%29.14 "Hg5 mi
12:53 PM60 °FLight rain. Overcast.15 mph69%29.14 "Hg7 mi
11:53 AM59 °FLight rain. Overcast.16 mph72%29.16 "Hg7 mi
10:53 AM59 °FLight rain. Mostly cloudy.15 mph69%29.17 "Hg10 mi
9:53 AM60 °FLight rain. More clouds than sun.14 mph65%29.21 "Hg10 mi
8:53 AM59 °FLight rain. Mostly cloudy.13 mph69%29.25 "Hg10 mi
7:53 AM59 °FLight rain. Cloudy.14 mph67%29.28 "Hg10 mi
6:53 AM59 °FLight rain. Overcast.14 mph64%29.30 "Hg10 mi
5:53 AM59 °FLight rain. Overcast.16 mph67%29.33 "Hg10 mi
4:53 AM59 °FLight rain. Mostly cloudy.15 mph64%29.36 "Hg10 mi
3:53 AM58 °FMostly cloudy.14 mph65%29.39 "Hg10 mi
2:53 AM58 °FOvercast.12 mph65%29.42 "Hg10 mi
1:53 AM58 °FOvercast.13 mph62%29.45 "Hg10 mi
12:53 AM58 °FMostly cloudy.14 mph62%29.48 "Hg10 mi
11:53 PM
Sep 17
55 °FMostly cloudy.8 mph72%29.50 "Hg10 mi
10:53 PM55 °FOvercast.8 mph74%29.53 "Hg10 mi
9:53 PM54 °FMostly cloudy.8 mph77%29.55 "Hg10 mi
8:53 PM53 °FPassing clouds.6 mph83%29.57 "Hg10 mi
Weather by CustomWeather, © 2014

See weather overviewHow to use our weather pages